EZY346J EGAC-EGPF

Flight info

Callsign EZY346J
Flight time 0h 20m
Altitude 17000
Route MAGEE DCT BLACA
Aircraft A320/M-SDE2E3FGHIJ1RWXYZ/LB1

Departure

Time 2026-05-01 09:09
Airport George Best Belfast City Airport (EGAC)

Arrival

Time 2026-05-01 09:29
Airport Glasgow Airport (EGPF)
Time Latitude Longitude Altitude Speed Heading
2026-05-01 08:42 54.61501 -5.87144 26 ft 0 kts 156°
2026-05-01 09:00 54.61508 -5.87150 25 ft 4 kts 157°
2026-05-01 09:00 54.61534 -5.87167 26 ft 4 kts 163°
2026-05-01 09:01 54.61559 -5.87176 25 ft 4 kts 184°
2026-05-01 09:01 54.61568 -5.87175 24 ft 4 kts 198°
2026-05-01 09:01 54.61576 -5.87170 25 ft 2 kts 213°
2026-05-01 09:01 54.61577 -5.87168 26 ft 0 kts 214°
2026-05-01 09:05 54.61576 -5.87170 25 ft 2 kts 214°
2026-05-01 09:05 54.61537 -5.87216 23 ft 11 kts 214°
2026-05-01 09:06 54.61478 -5.87287 23 ft 10 kts 214°
2026-05-01 09:06 54.61426 -5.87349 23 ft 8 kts 217°
2026-05-01 09:06 54.61393 -5.87418 23 ft 7 kts 236°
2026-05-01 09:06 54.61331 -5.87507 23 ft 18 kts 215°
2026-05-01 09:07 54.61225 -5.87631 24 ft 19 kts 213°
2026-05-01 09:07 54.61151 -5.87722 23 ft 15 kts 214°
2026-05-01 09:07 54.61086 -5.87820 23 ft 11 kts 245°
2026-05-01 09:07 54.61109 -5.87967 22 ft 12 kts 302°
2026-05-01 09:08 54.61140 -5.88033 22 ft 9 kts 319°
2026-05-01 09:08 54.61171 -5.88015 23 ft 0 kts 37°
2026-05-01 09:08 54.61243 -5.87928 22 ft 40 kts 34°
2026-05-01 09:08 54.61713 -5.87368 27 ft 119 kts 34°
2026-05-01 09:09 54.62554 -5.86346 167 ft 165 kts 39°
2026-05-01 09:09 54.63523 -5.85164 805 ft 177 kts 37°
2026-05-01 09:09 54.64934 -5.83482 1549 ft 200 kts 38°
2026-05-01 09:09 54.65761 -5.82546 1736 ft 221 kts 37°
2026-05-01 09:10 54.67096 -5.80955 2145 ft 244 kts 44°
2026-05-01 09:10 54.68399 -5.78928 2641 ft 266 kts 46°
2026-05-01 09:10 54.69774 -5.76635 3472 ft 274 kts 46°
2026-05-01 09:10 54.71144 -5.74315 4394 ft 278 kts 47°
2026-05-01 09:11 54.72518 -5.71985 5305 ft 282 kts 47°
2026-05-01 09:11 54.73935 -5.69587 6186 ft 288 kts 48°
2026-05-01 09:11 54.75380 -5.67149 7040 ft 292 kts 48°
2026-05-01 09:11 54.76851 -5.64680 7886 ft 297 kts 48°
2026-05-01 09:12 54.78307 -5.62129 8738 ft 299 kts 54°
2026-05-01 09:12 54.79448 -5.59141 9591 ft 297 kts 69°
2026-05-01 09:12 54.80201 -5.55821 10359 ft 300 kts 76°
2026-05-01 09:12 54.80915 -5.52267 10640 ft 324 kts 76°
2026-05-01 09:13 54.81678 -5.48501 11176 ft 336 kts 75°
2026-05-01 09:13 54.82467 -5.44650 11899 ft 341 kts 75°
2026-05-01 09:13 54.83272 -5.40745 12618 ft 346 kts 74°
2026-05-01 09:13 54.84089 -5.36791 13360 ft 351 kts 74°
2026-05-01 09:14 54.84911 -5.32783 14076 ft 355 kts 75°
2026-05-01 09:14 54.85735 -5.28722 14718 ft 358 kts 75°
2026-05-01 09:14 54.86565 -5.24621 15355 ft 362 kts 75°
2026-05-01 09:14 54.87581 -5.20573 15972 ft 370 kts 64°
2026-05-01 09:15 54.89086 -5.16888 16391 ft 379 kts 51°
2026-05-01 09:15 54.91055 -5.13824 16647 ft 383 kts 37°
2026-05-01 09:15 54.93379 -5.11533 16905 ft 386 kts 27°
2026-05-01 09:15 54.95796 -5.09477 17097 ft 388 kts 27°
2026-05-01 09:16 54.98174 -5.07424 17139 ft 375 kts 28°
2026-05-01 09:16 55.00515 -5.05469 17145 ft 378 kts 21°
2026-05-01 09:16 55.03033 -5.04102 16874 ft 379 kts 17°
2026-05-01 09:17 55.08095 -5.01527 15888 ft 377 kts 17°
2026-05-01 09:17 55.10608 -5.00245 15454 ft 375 kts 17°
2026-05-01 09:17 55.15578 -4.97686 14616 ft 370 kts 17°
2026-05-01 09:18 55.18043 -4.96421 14206 ft 368 kts 17°
2026-05-01 09:18 55.22922 -4.93896 13382 ft 363 kts 17°
2026-05-01 09:19 55.27728 -4.91410 12519 ft 358 kts 17°
2026-05-01 09:19 55.30109 -4.90183 12076 ft 356 kts 17°
2026-05-01 09:19 55.32477 -4.88963 11645 ft 354 kts 17°
2026-05-01 09:20 55.37160 -4.86540 10909 ft 345 kts 17°
2026-05-01 09:20 55.41615 -4.84216 10660 ft 323 kts 17°
2026-05-01 09:21 55.45830 -4.82004 10005 ft 312 kts 17°
2026-05-01 09:21 55.47903 -4.80917 9517 ft 310 kts 17°
2026-05-01 09:21 55.51997 -4.78777 8372 ft 304 kts 17°
2026-05-01 09:22 55.55985 -4.76688 7133 ft 298 kts 16°
2026-05-01 09:22 55.59927 -4.74611 5886 ft 293 kts 17°
2026-05-01 09:23 55.61871 -4.73589 5238 ft 290 kts 18°
2026-05-01 09:23 55.65688 -4.71579 4011 ft 282 kts 18°
2026-05-01 09:24 55.69212 -4.69715 3687 ft 250 kts 18°
2026-05-01 09:24 55.70846 -4.68848 3578 ft 241 kts 18°
2026-05-01 09:24 55.73939 -4.67160 3331 ft 223 kts 25°
2026-05-01 09:25 55.76163 -4.63849 2989 ft 202 kts 49°
2026-05-01 09:25 55.78061 -4.60318 2464 ft 193 kts 49°
2026-05-01 09:26 55.78982 -4.58611 2211 ft 189 kts 49°
2026-05-01 09:26 55.80759 -4.55311 1697 ft 177 kts 47°
2026-05-01 09:26 55.81584 -4.53779 1475 ft 165 kts 49°
2026-05-01 09:27 55.83035 -4.51121 1026 ft 140 kts 47°
2026-05-01 09:27 55.83697 -4.49888 797 ft 137 kts 48°
2026-05-01 09:27 55.84336 -4.48660 615 ft 134 kts 47°
2026-05-01 09:28 55.84996 -4.47476 417 ft 134 kts 46°
2026-05-01 09:28 55.85649 -4.46300 273 ft 134 kts 50°
2026-05-01 09:28 55.86249 -4.45084 103 ft 132 kts 47°
2026-05-01 09:28 55.86862 -4.43942 36 ft 117 kts 48°
2026-05-01 09:29 55.87593 -4.42571 39 ft 52 kts 46°
2026-05-01 09:29 55.87751 -4.42269 33 ft 6 kts 58°
2026-05-01 09:30 55.87639 -4.42150 31 ft 15 kts 195°
2026-05-01 09:30 55.87568 -4.42245 33 ft 12 kts 226°
2026-05-01 09:30 55.87408 -4.42542 33 ft 23 kts 226°
2026-05-01 09:31 55.87287 -4.42647 34 ft 19 kts 200°
2026-05-01 09:31 55.87157 -4.42735 32 ft 21 kts 200°
2026-05-01 09:31 55.86907 -4.42920 33 ft 17 kts 206°
2026-05-01 09:32 55.86824 -4.42983 33 ft 11 kts 197°
2026-05-01 09:32 55.86723 -4.42959 33 ft 5 kts 197°
2026-05-01 09:32 55.86710 -4.43003 33 ft 4 kts 251°
2026-05-01 09:33 55.86704 -4.43039 31 ft 2 kts 252°
2026-05-01 09:33 55.86703 -4.43042 31 ft 0 kts 252°